| time (UTC) | temp F | wind direction | speed knots | gust knots | rain 1hr in | rain 24hr in | rain mn in | humidity % | barometer mb |
| 20260906051854 | 64 | 20 | 9.6 | 0.0 | 0.00 | 0.00 | 0.00 | 68 | 1019.0 |
| 20260906050515 | 0 | 0.0 | 0.0 | 0.00 | 0.00 | 0.00 | |||
| 20260906045015 | 0 | 0.0 | 0.0 | 0.00 | 0.00 | 0.00 | |||
| 20260906043503 | 0 | 0.0 | 0.0 | 0.00 | 0.00 | 0.00 | |||
| 20260906042016 | 0 | 0.0 | 0.0 | 0.00 | 0.00 | 0.00 | |||
| 20260906040413 | 61 | 30 | 9.6 | 0.0 | 0.00 | 0.00 | 0.00 | 88 | 1018.0 |
| 20260906034915 | 0 | 0.0 | 0.0 | 0.00 | 0.00 | 0.00 | |||
| 20260906033515 | 0 | 0.0 | 0.0 | 0.00 | 0.00 | 0.00 | |||
| 20260906032017 | 0 | 0.0 | 0.0 | 0.00 | 0.00 | 0.00 | |||
| 20260906030515 | 0 | 0.0 | 0.0 | 0.00 | 0.00 | 0.00 | |||
| 20260906024921 | 64 | 30 | 15.6 | 0.0 | 0.00 | 0.00 | 0.00 | 83 | 1018.0 |
| 20260906023354 | 0 | 0.0 | 0.0 | 0.00 | 0.00 | 0.00 | |||
| 20260906021900 | 0 | 0.0 | 0.0 | 0.00 | 0.00 | 0.00 | |||
| 20260906020355 | 0 | 0.0 | 0.0 | 0.00 | 0.00 | 0.00 | |||
| 20260906014855 | 0 | 0.0 | 0.0 | 0.00 | 0.00 | 0.00 | |||
| 20260906013516 | 0 | 0.0 | 0.0 | 0.00 | 0.00 | 0.00 | |||
| 20260906011853 | 0 | 0.0 | 0.0 | 0.00 | 0.00 | 0.00 | |||
| 20260906010353 | 0 | 0.0 | 0.0 | 0.00 | 0.00 | 0.00 | |||
| 20260906005015 | 0 | 0.0 | 0.0 | 0.00 | 0.00 | 0.00 | |||
| 20260906003525 | 0 | 0.0 | 0.0 | 0.00 | 0.00 | 0.00 | |||
| 20260906002016 | 0 | 0.0 | 0.0 | 0.00 | 0.00 | 0.00 | |||
| 20260906000505 | 0 | 0.0 | 0.0 | 0.00 | 0.00 | 0.00 | |||
| 20260905234904 | 0 | 0.0 | 0.0 | 0.00 | 0.00 | 0.00 | |||
| 20260905233353 | 0 | 0.0 | 0.0 | 0.00 | 0.00 | 0.00 | |||
| 20260905232017 | 0 | 0.0 | 0.0 | 0.00 | 0.00 | 0.00 | |||
| 20260905230426 | 0 | 0.0 | 0.0 | 0.00 | 0.00 | 0.00 | |||
| 20260905225017 | 0 | 0.0 | 0.0 | 0.00 | 0.00 | 0.00 | |||
| 20260905223407 | 0 | 0.0 | 0.0 | 0.00 | 0.00 | 0.00 | |||
| 20260905222000 | 0 | 0.0 | 0.0 | 0.00 | 0.00 | 0.00 | |||
| 20260905220515 | 0 | 0.0 | 0.0 | 0.00 | 0.00 | 0.00 | |||
| 20260905215014 | 0 | 0.0 | 0.0 | 0.00 | 0.00 | 0.00 | |||
| 20260905213354 | 0 | 0.0 | 0.0 | 0.00 | 0.00 | 0.00 | |||
| 20260905211850 | 0 | 0.0 | 0.0 | 0.00 | 0.00 | 0.00 | |||
| 20260905210353 | 0 | 0.0 | 0.0 | 0.00 | 0.00 | 0.00 | |||
| 20260905204904 | 75 | 260 | 6.1 | 0.0 | 0.00 | 0.00 | 0.00 | 50 | 1014.0 |
| 20260905203353 | 75 | 260 | 6.1 | 0.0 | 0.00 | 0.00 | 0.00 | 50 | 1014.0 |
| 20260905201853 | 75 | 260 | 6.1 | 0.0 | 0.00 | 0.00 | 0.00 | 50 | 1014.0 |
| 20260905200515 | 0 | 0.0 | 0.0 | 0.00 | 0.00 | 0.00 | |||
| 20260905195008 | 0 | 0.0 | 0.0 | 0.00 | 0.00 | 0.00 | |||
| 20260905193354 | 77 | 260 | 6.1 | 0.0 | 0.00 | 0.00 | 0.00 | 47 | 1014.0 |
| 20260905191923 | 77 | 260 | 6.1 | 0.0 | 0.00 | 0.00 | 0.00 | 47 | 1014.0 |
| 20260905190354 | 0 | 0.0 | 0.0 | 0.00 | 0.00 | 0.00 | |||
| 20260905184851 | 81 | 250 | 9.6 | 0.0 | 0.00 | 0.00 | 0.00 | 42 | 1013.0 |
| 20260905183359 | 81 | 250 | 9.6 | 0.0 | 0.00 | 0.00 | 0.00 | 42 | 1013.0 |
| 20260905181850 | 81 | 250 | 9.6 | 0.0 | 0.00 | 0.00 | 0.00 | 42 | 1013.0 |
| 20260905180350 | 81 | 250 | 9.6 | 0.0 | 0.00 | 0.00 | 0.00 | 42 | 1013.0 |
| 20260905174847 | 84 | 250 | 9.6 | 0.0 | 0.00 | 0.00 | 0.00 | 37 | 1013.0 |
| 20260905173354 | 84 | 250 | 9.6 | 0.0 | 0.00 | 0.00 | 0.00 | 37 | 1013.0 |
| 20260905171855 | 84 | 250 | 9.6 | 0.0 | 0.00 | 0.00 | 0.00 | 37 | 1013.0 |
| 20260905170354 | 84 | 250 | 9.6 | 0.0 | 0.00 | 0.00 | 0.00 | 37 | 1013.0 |
| 20260905164854 | 88 | 250 | 13.9 | 0.0 | 0.00 | 0.00 | 0.00 | 31 | 1012.0 |
| 20260905163355 | 88 | 250 | 13.9 | 0.0 | 0.00 | 0.00 | 0.00 | 31 | 1012.0 |
| 20260905161852 | 88 | 250 | 13.9 | 0.0 | 0.00 | 0.00 | 0.00 | 31 | 1012.0 |
| 20260905160354 | 88 | 250 | 13.9 | 0.0 | 0.00 | 0.00 | 0.00 | 31 | 1012.0 |
| 20260905154904 | 91 | 250 | 13.9 | 0.0 | 0.00 | 0.00 | 0.00 | 28 | 1013.0 |
| 20260905153353 | 91 | 250 | 13.9 | 0.0 | 0.00 | 0.00 | 0.00 | 28 | 1013.0 |
| 20260905151854 | 91 | 250 | 13.9 | 0.0 | 0.00 | 0.00 | 0.00 | 28 | 1013.0 |
| 20260905150354 | 91 | 250 | 13.9 | 0.0 | 0.00 | 0.00 | 0.00 | 28 | 1013.0 |
| 20260905144847 | 91 | 250 | 15.6 | 0.0 | 0.00 | 0.00 | 0.00 | 30 | 1013.0 |
| 20260905143353 | 91 | 250 | 15.6 | 0.0 | 0.00 | 0.00 | 0.00 | 30 | 1013.0 |
| 20260905141851 | 91 | 250 | 15.6 | 0.0 | 0.00 | 0.00 | 0.00 | 30 | 1013.0 |
| 20260905140350 | 91 | 250 | 15.6 | 0.0 | 0.00 | 0.00 | 0.00 | 30 | 1013.0 |
| 20260905135013 | 0 | 0.0 | 0.0 | 0.00 | 0.00 | 0.00 | |||
| 20260905133354 | 93 | 230 | 13.9 | 0.0 | 0.00 | 0.00 | 0.00 | 30 | 1013.0 |
| 20260905131856 | 93 | 230 | 13.9 | 0.0 | 0.00 | 0.00 | 0.00 | 30 | 1013.0 |
| 20260905130415 | 93 | 230 | 13.9 | 0.0 | 0.00 | 0.00 | 0.00 | 30 | 1013.0 |
| 20260905124848 | 91 | 210 | 12.2 | 0.0 | 0.00 | 0.00 | 0.00 | 30 | 1014.0 |
| 20260905123354 | 91 | 210 | 12.2 | 0.0 | 0.00 | 0.00 | 0.00 | 30 | 1014.0 |
| 20260905121921 | 91 | 210 | 12.2 | 0.0 | 0.00 | 0.00 | 0.00 | 30 | 1014.0 |
| 20260905120354 | 91 | 210 | 12.2 | 0.0 | 0.00 | 0.00 | 0.00 | 30 | 1014.0 |
| 20260905114854 | 91 | 220 | 9.6 | 0.0 | 0.00 | 0.00 | 0.00 | 30 | 1015.0 |
| 20260905113353 | 91 | 220 | 9.6 | 0.0 | 0.00 | 0.00 | 0.00 | 30 | 1015.0 |
| 20260905111912 | 91 | 220 | 9.6 | 0.0 | 0.00 | 0.00 | 0.00 | 30 | 1015.0 |
| 20260905110353 | 91 | 220 | 9.6 | 0.0 | 0.00 | 0.00 | 0.00 | 30 | 1015.0 |
| 20260905104854 | 90 | 270 | 6.1 | 0.0 | 0.00 | 0.00 | 0.00 | 29 | 1015.0 |
| 20260905103354 | 90 | 270 | 6.1 | 0.0 | 0.00 | 0.00 | 0.00 | 29 | 1015.0 |
| 20260905101853 | 90 | 270 | 6.1 | 0.0 | 0.00 | 0.00 | 0.00 | 29 | 1015.0 |
| 20260905100354 | 90 | 270 | 6.1 | 0.0 | 0.00 | 0.00 | 0.00 | 29 | 1015.0 |
| 20260905095015 | 0 | 0.0 | 0.0 | 0.00 | 0.00 | 0.00 | |||
| 20260905093353 | 88 | 230 | 9.6 | 0.0 | 0.00 | 0.00 | 0.00 | 33 | 1016.0 |
| 20260905091854 | 88 | 230 | 9.6 | 0.0 | 0.00 | 0.00 | 0.00 | 33 | 1016.0 |
| 20260905090354 | 88 | 230 | 9.6 | 0.0 | 0.00 | 0.00 | 0.00 | 33 | 1016.0 |
| 20260905084853 | 84 | 2.6 | 0.0 | 0.00 | 0.00 | 0.00 | 33 | 1016.0 | |
| 20260905083354 | 84 | 2.6 | 0.0 | 0.00 | 0.00 | 0.00 | 33 | 1016.0 | |
| 20260905081853 | 84 | 2.6 | 0.0 | 0.00 | 0.00 | 0.00 | 33 | 1016.0 | |
| 20260905080354 | 84 | 2.6 | 0.0 | 0.00 | 0.00 | 0.00 | 33 | 1016.0 | |
| 20260905074853 | 0 | 0.0 | 0.0 | 0.00 | 0.00 | 0.00 | |||
| 20260905073402 | 0 | 0.0 | 0.0 | 0.00 | 0.00 | 0.00 | |||
| 20260905071854 | 0 | 0.0 | 0.0 | 0.00 | 0.00 | 0.00 | |||
| 20260905070354 | 0 | 0.0 | 0.0 | 0.00 | 0.00 | 0.00 | |||
| 20260905064854 | 0 | 0.0 | 0.0 | 0.00 | 0.00 | 0.00 | |||
| 20260905063354 | 0 | 0.0 | 0.0 | 0.00 | 0.00 | 0.00 | |||
| 20260905061854 | 0 | 0.0 | 0.0 | 0.00 | 0.00 | 0.00 | |||
| 20260905060355 | 0 | 0.0 | 0.0 | 0.00 | 0.00 | 0.00 | |||
| 20260905054854 | 64 | 230 | 4.3 | 0.0 | 0.00 | 0.00 | 0.00 | 68 | 1016.0 |
| 20260905053354 | 64 | 230 | 4.3 | 0.0 | 0.00 | 0.00 | 0.00 | 68 | 1016.0 |